Regional Weather Roundup
Issued by NWS

Home | Current Version | Previous Version | Graphics & Text | Print | Product List | Glossary On
Versions: 1 2 3 4 5 6 7 8 9 10 11 12 13 14 15 16 17 18 19 20 21 22 23 24 25 26 27 28 29 30 31 32 33 34 35 36 37 38 39 40 41 42 43 44 45 46 47 48 49 50
000
ASUS43 KIND 190059
RWRIN

WEATHER ROUNDUP FOR INDIANA
NATIONAL WEATHER SERVICE INDIANAPOLIS IN
900 PM EDT FRI APR 18 2014

NOTE: "FAIR" INDICATES FEW OR NO CLOUDS BELOW 12,000 FEET WITH NO
SIGNIFICANT WEATHER AND/OR OBSTRUCTIONS TO VISIBILITY.

* - STATION DOES NOT REPORT WEATHER SUCH AS PRECIPITATION OR FOG.

+ - STATION NOT QUALITY CONTROLLED BY THE NATIONAL WEATHER SERVICE.
    USE DATA WITH CAUTION...ESPECIALLY DEWPOINT AND RELATIVE
    HUMIDITY OBSERVATIONS.

INZ001>003-010>013-019-020-190200-
NORTHWEST INDIANA

CITY           SKY/WX    TMP DP  RH WIND       PRES   REMARKS
GARY /AIRPORT/ CLEAR     39  32  75 NE18      30.35S
VALPARAISO     CLEAR     38  30  73 N7        30.33R

$$

LMZ046-743>745-190200-
SOUTHERN LAKE MICHIGAN

STATION/POSITION TIME  TEMP WIND        PRES
                       AIR  DIR/SP/G
                 (UTC) (F)  (DEG/KT/KT) (MB)
MICHIGAN CITY    0000   37   20/ 19/ 21   N/A

$$

INZ004-005-014>016-021>024-190200-
NORTH CENTRAL INDIANA

CITY           SKY/WX    TMP DP  RH WIND       PRES   REMARKS
ELKHART        CLEAR     45  32  61 N10       30.31R
GOSHEN         CLEAR     48  36  63 N14       30.29R
SOUTH BEND     CLEAR     42  28  57 N10       30.32S

$$

INZ006>009-017-018-025>027-190200-
NORTHEAST INDIANA

CITY           SKY/WX    TMP DP  RH WIND       PRES   REMARKS
ANGOLA *+      CLEAR     54  34  47 NW10      30.26R
FORT WAYNE     CLEAR     55  31  39 NW7       30.25R

$$

INZ028-029-035-036-043>045-051>053-190200-
WEST CENTRAL INDIANA

CITY           SKY/WX    TMP DP  RH WIND       PRES   REMARKS
GREENCASTLE +  CLEAR     59  39  47 N3        30.24R
LAFAYETTE      CLEAR     54  34  46 N15G21    30.26R
TERRE HAUTE    CLEAR     61  38  42 N3        30.22R

$$

INZ030>032-037>040-046>048-054>057-064-065-190200-
CENTRAL INDIANA

CITY           SKY/WX    TMP DP  RH WIND       PRES   REMARKS
INDIANAPOLIS   PTCLDY    60  38  43 N7        30.22R
-EAGLE CREEK   CLEAR     61  37  41 N3        30.22R
KOKOMO *+        N/A    N/A N/A N/A MISG        N/A
MT COMFORT *+  CLEAR     55  41  58 N7        30.24R
SHELBYVILLE    CLEAR     61  43  51 N6        30.22R

$$

INZ033-034-041-042-049-050-058-059-190200-
EAST CENTRAL INDIANA

CITY           SKY/WX    TMP DP  RH WIND       PRES   REMARKS
MUNCIE         CLEAR     58  39  49 NW5       30.23R

$$

INZ060-061-067>069-081>083-085>088-190200-
SOUTHWEST INDIANA

CITY           SKY/WX    TMP DP  RH WIND       PRES   REMARKS
EVANSVILLE     PTCLDY    65  43  44 N5        30.20S
HUNTINGBURG *+ PTCLDY    64  39  39 N7        30.20S

$$

INZ062-063-066-070>080-084-089>092-190200-
SOUTH CENTRAL AND SOUTHEAST INDIANA

CITY           SKY/WX    TMP DP  RH WIND       PRES   REMARKS
BLOOMINGTON    PTCLDY    57  41  55 CALM      30.22R

$$




USA.gov is the U.S. government's official web portal to all federal, state and local government web resources and services.